Time,TemperatureF,DewpointF,PressureIn,WindDirection,WindDirectionDegrees,WindSpeedMPH,WindSpeedGustMPH,Humidity,HourlyPrecipIn,Conditions,Clouds,dailyrainin,SoftwareType,DateUTC
2013-11-14 00:00:00,33.6,-0.2,29.88,SSW,213,4.0,10.1,23,0.00,,CLR,0.00,VWS V14.01,2013-11-14 06:00:00,
2013-11-14 00:05:00,33.6,-0.2,29.88,SSW,205,8.7,11.4,23,0.00,,CLR,0.00,VWS V14.01,2013-11-14 06:05:00,
2013-11-14 00:10:00,33.6,-0.2,29.88,SSW,211,8.3,11.9,23,0.00,,CLR,0.00,VWS V14.01,2013-11-14 06:10:00,
2013-11-14 00:15:00,33.6,-0.2,29.88,South,173,8.3,8.7,23,0.00,,CLR,0.00,VWS V14.01,2013-11-14 06:15:00,
2013-11-14 00:20:00,33.6,-0.2,29.88,SSE,166,10.1,12.8,23,0.00,,CLR,0.00,VWS V14.01,2013-11-14 06:20:00,
2013-11-14 00:25:00,33.4,-0.4,29.88,SSW,194,5.8,8.1,23,0.00,,CLR,0.00,VWS V14.01,2013-11-14 06:25:00,
2013-11-14 00:30:00,33.3,-0.5,29.88,WSW,245,8.3,10.1,23,0.00,,CLR,0.00,VWS V14.01,2013-11-14 06:30:00,
2013-11-14 00:35:00,33.3,-0.5,29.88,SSW,207,5.4,8.7,23,0.00,,CLR,0.00,VWS V14.01,2013-11-14 06:35:00,
2013-11-14 00:40:00,33.4,-0.4,29.88,WSW,241,4.0,7.6,23,0.00,,CLR,0.00,VWS V14.01,2013-11-14 06:40:00,
2013-11-14 00:45:00,33.4,-0.4,29.88,SW,233,5.4,12.8,23,0.00,,CLR,0.00,VWS V14.01,2013-11-14 06:45:00,
2013-11-14 00:50:00,33.3,-0.5,29.88,South,179,7.6,8.3,23,0.00,,CLR,0.00,VWS V14.01,2013-11-14 06:50:00,
2013-11-14 00:55:00,33.3,-0.5,29.88,SW,234,5.4,9.2,23,0.00,,CLR,0.00,VWS V14.01,2013-11-14 06:55:00,
2013-11-14 01:00:00,33.3,-0.5,29.88,SW,225,8.1,11.0,23,0.00,,CLR,0.00,VWS V14.01,2013-11-14 07:00:00,
2013-11-14 01:05:00,33.3,-0.5,29.88,SW,222,7.6,8.3,23,0.00,,CLR,0.00,VWS V14.01,2013-11-14 07:05:00,
2013-11-14 01:10:00,33.3,-0.5,29.88,SW,229,6.3,8.7,23,0.00,,CLR,0.00,VWS V14.01,2013-11-14 07:10:00,
2013-11-14 01:15:00,33.3,-0.5,29.88,SSW,202,8.7,10.1,23,0.00,,CLR,0.00,VWS V14.01,2013-11-14 07:15:00,
2013-11-14 01:20:00,33.3,-0.5,29.85,SW,225,7.6,10.5,23,0.00,,CLR,0.00,VWS V14.01,2013-11-14 07:20:00,
2013-11-14 01:25:00,33.3,-0.5,29.85,SW,219,9.6,9.6,23,0.00,,CLR,0.00,VWS V14.01,2013-11-14 07:25:00,
2013-11-14 01:30:00,33.3,-0.5,29.85,South,186,8.1,8.3,23,0.00,,CLR,0.00,VWS V14.01,2013-11-14 07:30:00,
2013-11-14 01:35:00,33.3,-0.5,29.85,WSW,238,5.4,10.1,23,0.00,,CLR,0.00,VWS V14.01,2013-11-14 07:35:00,
2013-11-14 01:40:00,33.1,-0.7,29.85,SW,218,7.6,8.1,23,0.00,,CLR,0.00,VWS V14.01,2013-11-14 07:40:00,
2013-11-14 01:45:00,33.3,-0.5,29.85,South,189,8.3,12.3,23,0.00,,CLR,0.00,VWS V14.01,2013-11-14 07:45:00,
2013-11-14 01:51:00,33.1,-0.7,29.85,SW,232,8.3,15.4,23,0.00,,CLR,0.00,VWS V14.01,2013-11-14 07:51:00,
2013-11-14 01:56:00,33.1,-0.7,29.85,SSW,198,10.1,10.1,23,0.00,,CLR,0.00,VWS V14.01,2013-11-14 07:56:00,
2013-11-14 02:01:00,32.9,-0.8,29.85,SSW,213,8.3,11.0,23,0.00,,CLR,0.00,VWS V14.01,2013-11-14 08:01:00,
2013-11-14 02:06:00,32.9,-0.8,29.85,South,176,7.6,7.6,23,0.00,,CLR,0.00,VWS V14.01,2013-11-14 08:06:00,
2013-11-14 02:11:00,32.7,-1.0,29.85,SW,216,9.6,13.2,23,0.00,,CLR,0.00,VWS V14.01,2013-11-14 08:11:00,
2013-11-14 02:16:00,32.7,0.8,29.85,SW,222,7.6,10.1,25,0.00,,CLR,0.00,VWS V14.01,2013-11-14 08:16:00,
2013-11-14 02:21:00,32.7,0.8,29.85,SSW,196,7.6,10.1,25,0.00,,CLR,0.00,VWS V14.01,2013-11-14 08:21:00,
2013-11-14 02:26:00,32.5,0.6,29.85,SW,232,7.6,8.3,25,0.00,,CLR,0.00,VWS V14.01,2013-11-14 08:26:00,
2013-11-14 02:31:00,32.4,0.5,29.85,SW,231,8.1,12.3,25,0.00,,CLR,0.00,VWS V14.01,2013-11-14 08:31:00,
2013-11-14 02:36:00,32.4,0.5,29.85,SSW,192,3.6,9.6,25,0.00,,CLR,0.00,VWS V14.01,2013-11-14 08:36:00,
2013-11-14 02:41:00,32.2,0.3,29.85,South,189,8.1,11.0,25,0.00,,CLR,0.00,VWS V14.01,2013-11-14 08:41:00,
2013-11-14 02:46:00,32.2,0.3,29.85,SSW,198,6.3,6.3,25,0.00,,CLR,0.00,VWS V14.01,2013-11-14 08:46:00,
2013-11-14 02:51:00,32.0,0.2,29.85,WSW,247,5.4,8.3,25,0.00,,CLR,0.00,VWS V14.01,2013-11-14 08:51:00,
2013-11-14 02:56:00,31.8,0.0,29.85,SSW,212,3.1,6.3,25,0.00,,CLR,0.00,VWS V14.01,2013-11-14 08:56:00,
2013-11-14 03:01:00,31.6,-0.1,29.85,SSW,199,9.6,11.9,25,0.00,,CLR,0.00,VWS V14.01,2013-11-14 09:01:00,
2013-11-14 03:08:00,31.8,0.0,29.85,SSW,193,7.6,8.3,25,0.00,,CLR,0.00,VWS V14.01,2013-11-14 09:08:00,
2013-11-14 03:13:00,31.6,-0.1,29.85,SSW,208,10.1,12.8,25,0.00,,CLR,0.00,VWS V14.01,2013-11-14 09:13:00,
2013-11-14 03:18:00,31.8,0.0,29.85,SSW,201,8.7,8.7,25,0.00,,CLR,0.00,VWS V14.01,2013-11-14 09:18:00,
2013-11-14 03:23:00,31.8,0.0,29.85,SSW,204,5.4,8.7,25,0.00,,CLR,0.00,VWS V14.01,2013-11-14 09:23:00,
2013-11-14 03:29:00,31.8,0.0,29.85,SSW,208,5.4,5.8,25,0.00,,CLR,0.00,VWS V14.01,2013-11-14 09:29:00,
2013-11-14 03:34:00,31.6,-0.1,29.85,SSW,194,8.1,8.7,25,0.00,,CLR,0.00,VWS V14.01,2013-11-14 09:34:00,
2013-11-14 03:39:00,31.5,-0.3,29.85,South,176,4.0,10.5,25,0.00,,CLR,0.00,VWS V14.01,2013-11-14 09:39:00,
2013-11-14 03:44:00,31.3,-0.4,29.85,SSW,197,3.6,6.3,25,0.00,,CLR,0.00,VWS V14.01,2013-11-14 09:44:00,
2013-11-14 03:49:00,31.1,-0.6,29.85,SSW,195,4.0,4.9,25,0.00,,CLR,0.00,VWS V14.01,2013-11-14 09:49:00,
2013-11-14 03:55:00,30.9,-0.8,29.85,SSW,200,3.6,8.1,25,0.00,,CLR,0.00,VWS V14.01,2013-11-14 09:55:00,
2013-11-14 04:00:00,30.7,-0.9,29.85,South,189,4.0,5.4,25,0.00,,CLR,0.00,VWS V14.01,2013-11-14 10:00:00,
2013-11-14 04:05:00,30.7,-0.9,29.82,SW,220,7.6,7.6,25,0.00,,CLR,0.00,VWS V14.01,2013-11-14 10:05:00,
2013-11-14 04:10:00,30.7,-0.9,29.82,SSW,200,8.1,8.1,25,0.00,,CLR,0.00,VWS V14.01,2013-11-14 10:10:00,
2013-11-14 04:15:00,30.7,-0.9,29.82,South,187,3.1,5.8,25,0.00,,CLR,0.00,VWS V14.01,2013-11-14 10:15:00,
2013-11-14 04:20:00,30.7,-0.9,29.82,SSE,165,6.3,6.3,25,0.00,,CLR,0.00,VWS V14.01,2013-11-14 10:20:00,
2013-11-14 04:25:00,30.7,-0.9,29.82,SSW,198,5.4,5.8,25,0.00,,CLR,0.00,VWS V14.01,2013-11-14 10:25:00,
2013-11-14 04:30:00,30.7,1.5,29.82,SSW,201,4.0,6.3,28,0.00,,CLR,0.00,VWS V14.01,2013-11-14 10:30:00,
2013-11-14 04:35:00,30.7,1.5,29.82,South,186,5.4,6.3,28,0.00,,CLR,0.00,VWS V14.01,2013-11-14 10:35:00,
2013-11-14 04:40:00,30.6,1.4,29.82,SW,221,8.1,8.1,28,0.00,,CLR,0.00,VWS V14.01,2013-11-14 10:40:00,
2013-11-14 04:45:00,30.6,1.4,29.82,SW,229,6.3,6.3,28,0.00,,CLR,0.00,VWS V14.01,2013-11-14 10:45:00,
2013-11-14 04:50:00,30.6,1.4,29.82,SW,226,6.7,6.7,28,0.00,,CLR,0.00,VWS V14.01,2013-11-14 10:50:00,
2013-11-14 04:55:00,30.6,1.4,29.82,South,190,5.4,5.8,28,0.00,,CLR,0.00,VWS V14.01,2013-11-14 10:55:00,
2013-11-14 05:00:00,30.6,1.4,29.82,SSW,201,4.9,5.8,28,0.00,,CLR,0.00,VWS V14.01,2013-11-14 11:00:00,
2013-11-14 05:05:00,30.6,1.4,29.82,SSW,201,3.6,5.4,28,0.00,,CLR,0.00,VWS V14.01,2013-11-14 11:05:00,
2013-11-14 05:10:00,30.6,1.4,29.82,South,190,5.8,6.3,28,0.00,,CLR,0.00,VWS V14.01,2013-11-14 11:10:00,
2013-11-14 05:15:00,30.6,1.4,29.82,South,176,5.4,5.8,28,0.00,,CLR,0.00,VWS V14.01,2013-11-14 11:15:00,
2013-11-14 05:20:00,30.6,1.4,29.82,WSW,247,8.1,8.1,28,0.00,,CLR,0.00,VWS V14.01,2013-11-14 11:20:00,
2013-11-14 05:25:00,30.4,1.2,29.82,SSW,208,4.9,5.4,28,0.00,,CLR,0.00,VWS V14.01,2013-11-14 11:25:00,
2013-11-14 05:30:00,30.4,1.2,29.82,SSW,211,3.6,4.9,28,0.00,,CLR,0.00,VWS V14.01,2013-11-14 11:30:00,
2013-11-14 05:35:00,30.2,1.0,29.82,WSW,239,5.8,5.8,28,0.00,,CLR,0.00,VWS V14.01,2013-11-14 11:35:00,
2013-11-14 05:40:00,30.2,1.0,29.82,South,177,3.6,7.6,28,0.00,,CLR,0.00,VWS V14.01,2013-11-14 11:40:00,
2013-11-14 05:45:00,30.2,1.0,29.82,South,183,4.0,7.6,28,0.00,,CLR,0.00,VWS V14.01,2013-11-14 11:45:00,
2013-11-14 05:50:00,30.2,2.5,29.82,South,186,5.4,7.2,30,0.00,,CLR,0.00,VWS V14.01,2013-11-14 11:50:00,
2013-11-14 05:55:00,30.0,2.3,29.82,SSW,202,5.4,5.4,30,0.00,,CLR,0.00,VWS V14.01,2013-11-14 11:55:00,
2013-11-14 06:01:00,29.8,2.2,29.82,SSW,192,4.0,6.3,30,0.00,,CLR,0.00,VWS V14.01,2013-11-14 12:01:00,
2013-11-14 06:06:00,29.8,2.2,29.82,South,189,5.8,6.3,30,0.00,,CLR,0.00,VWS V14.01,2013-11-14 12:06:00,
2013-11-14 06:11:00,29.7,2.0,29.82,South,191,3.6,6.3,30,0.00,,CLR,0.00,VWS V14.01,2013-11-14 12:11:00,
2013-11-14 06:16:00,29.7,2.0,29.82,SSE,163,4.9,6.3,30,0.00,,CLR,0.00,VWS V14.01,2013-11-14 12:16:00,
2013-11-14 06:21:00,29.8,2.2,29.82,South,177,3.6,5.4,30,0.00,,CLR,0.00,VWS V14.01,2013-11-14 12:21:00,
2013-11-14 06:26:00,29.8,2.2,29.82,South,189,5.4,5.4,30,0.00,,CLR,0.00,VWS V14.01,2013-11-14 12:26:00,
2013-11-14 06:31:00,29.8,2.2,29.82,SSW,192,4.0,5.4,30,0.00,,CLR,0.00,VWS V14.01,2013-11-14 12:31:00,
2013-11-14 06:37:00,29.8,2.2,29.82,SSW,194,4.0,5.8,30,0.00,,CLR,0.00,VWS V14.01,2013-11-14 12:37:00,
2013-11-14 06:42:00,29.8,2.2,29.82,SSW,192,3.1,4.0,30,0.00,,CLR,0.00,VWS V14.01,2013-11-14 12:42:00,
2013-11-14 06:47:00,29.8,2.2,29.82,SW,228,8.1,8.1,30,0.00,,CLR,0.00,VWS V14.01,2013-11-14 12:47:00,
2013-11-14 06:53:00,29.8,2.2,29.82,South,183,5.8,5.8,30,0.00,,CLR,0.00,VWS V14.01,2013-11-14 12:53:00,
2013-11-14 06:58:00,30.0,3.1,29.82,South,190,4.0,4.9,31,0.00,,CLR,0.00,VWS V14.01,2013-11-14 12:58:00,
2013-11-14 07:04:00,30.2,3.2,29.82,SSW,195,3.6,5.4,31,0.00,,CLR,0.00,VWS V14.01,2013-11-14 13:04:00,
2013-11-14 07:09:00,30.2,3.2,29.82,SSW,194,4.0,5.8,31,0.00,,CLR,0.00,VWS V14.01,2013-11-14 13:09:00,
2013-11-14 07:14:00,30.4,2.7,29.82,South,173,5.8,6.3,30,0.00,,CLR,0.00,VWS V14.01,2013-11-14 13:14:00,
2013-11-14 07:19:00,30.7,3.0,29.82,South,190,5.4,7.2,30,0.00,,CLR,0.00,VWS V14.01,2013-11-14 13:19:00,
2013-11-14 07:24:00,30.9,3.1,29.82,SSW,207,8.1,8.1,30,0.00,,CLR,0.00,VWS V14.01,2013-11-14 13:24:00,
2013-11-14 07:30:00,31.1,3.3,29.82,SSW,211,5.8,5.8,30,0.00,,CLR,0.00,VWS V14.01,2013-11-14 13:30:00,
2013-11-14 07:35:00,31.3,3.5,29.82,South,180,8.3,8.3,30,0.00,,CLR,0.00,VWS V14.01,2013-11-14 13:35:00,
2013-11-14 07:40:00,31.6,3.8,29.82,SW,218,7.6,8.3,30,0.00,,CLR,0.00,VWS V14.01,2013-11-14 13:40:00,
2013-11-14 07:45:00,32.0,4.1,29.82,SSW,204,5.8,8.3,30,0.00,,CLR,0.00,VWS V14.01,2013-11-14 13:45:00,
2013-11-14 07:50:00,32.4,4.4,29.82,SSW,192,8.3,8.7,30,0.00,,CLR,0.00,VWS V14.01,2013-11-14 13:50:00,
2013-11-14 07:55:00,32.5,4.6,29.82,South,178,4.0,5.8,30,0.00,,CLR,0.00,VWS V14.01,2013-11-14 13:55:00,
2013-11-14 08:01:00,32.7,4.7,29.82,SSE,165,6.3,8.7,30,0.00,,CLR,0.00,VWS V14.01,2013-11-14 14:01:00,
2013-11-14 08:07:00,33.1,5.0,29.82,SW,220,10.1,10.1,30,0.00,,CLR,0.00,VWS V14.01,2013-11-14 14:07:00,
2013-11-14 08:12:00,33.3,5.2,29.82,WSW,238,9.2,9.2,30,0.00,,CLR,0.00,VWS V14.01,2013-11-14 14:12:00,
2013-11-14 08:18:00,33.6,4.0,29.82,SSW,206,8.1,9.6,28,0.00,,CLR,0.00,VWS V14.01,2013-11-14 14:18:00,
2013-11-14 08:24:00,34.0,3.5,29.82,SW,224,6.3,6.3,27,0.00,,CLR,0.00,VWS V14.01,2013-11-14 14:24:00,
2013-11-14 08:29:00,34.2,3.7,29.82,WSW,238,6.3,8.1,27,0.00,,CLR,0.00,VWS V14.01,2013-11-14 14:29:00,
2013-11-14 08:34:00,34.5,4.0,29.82,SW,223,4.9,8.3,27,0.00,,CLR,0.00,VWS V14.01,2013-11-14 14:34:00,
2013-11-14 08:39:00,34.5,4.0,29.82,WSW,247,4.0,7.6,27,0.00,,CLR,0.00,VWS V14.01,2013-11-14 14:39:00,
2013-11-14 08:45:00,34.9,4.3,29.82,WSW,243,8.1,8.1,27,0.00,,CLR,0.00,VWS V14.01,2013-11-14 14:45:00,
2013-11-14 08:47:00,34.9,4.3,29.82,SSW,206,7.6,9.6,27,0.00,,CLR,0.00,VWS V14.01,2013-11-14 14:47:00,
2013-11-14 08:52:00,35.2,4.6,29.82,WSW,240,3.6,12.8,27,0.00,,CLR,0.00,VWS V14.01,2013-11-14 14:52:00,
2013-11-14 08:57:00,35.4,4.8,29.82,SW,225,7.6,11.0,27,0.00,,CLR,0.00,VWS V14.01,2013-11-14 14:57:00,
2013-11-14 09:02:00,35.6,4.9,29.82,WSW,244,8.1,8.1,27,0.00,,CLR,0.00,VWS V14.01,2013-11-14 15:02:00,
2013-11-14 09:08:00,35.8,5.1,29.82,SW,225,6.3,11.0,27,0.00,,CLR,0.00,VWS V14.01,2013-11-14 15:08:00,
2013-11-14 09:13:00,36.1,5.4,29.82,SSW,197,5.4,10.5,27,0.00,,CLR,0.00,VWS V14.01,2013-11-14 15:13:00,
2013-11-14 09:19:00,36.3,5.6,29.79,SSW,213,15.4,15.4,27,0.00,,CLR,0.00,VWS V14.01,2013-11-14 15:19:00,
2013-11-14 09:24:00,36.7,5.9,29.79,SW,219,11.0,13.6,27,0.00,,CLR,0.00,VWS V14.01,2013-11-14 15:24:00,
2013-11-14 09:29:00,36.9,3.5,29.79,SW,235,12.8,15.0,24,0.00,,CLR,0.00,VWS V14.01,2013-11-14 15:29:00,
2013-11-14 09:34:00,37.0,3.6,29.79,WSW,250,10.1,15.0,24,0.00,,CLR,0.00,VWS V14.01,2013-11-14 15:34:00,
2013-11-14 09:39:00,37.0,3.6,29.79,SW,232,9.6,15.0,24,0.00,,CLR,0.00,VWS V14.01,2013-11-14 15:39:00,
2013-11-14 09:44:00,37.0,3.6,29.79,SW,217,8.7,13.2,24,0.00,,CLR,0.00,VWS V14.01,2013-11-14 15:44:00,
2013-11-14 09:50:00,37.0,3.6,29.79,South,185,12.8,15.0,24,0.00,,CLR,0.00,VWS V14.01,2013-11-14 15:50:00,
2013-11-14 09:55:00,37.0,3.6,29.79,SW,231,8.1,11.0,24,0.00,,CLR,0.00,VWS V14.01,2013-11-14 15:55:00,
2013-11-14 10:01:00,37.6,4.1,29.79,SW,219,8.7,15.0,24,0.00,,CLR,0.00,VWS V14.01,2013-11-14 16:01:00,
2013-11-14 10:07:00,37.9,4.4,29.79,SW,232,11.9,12.3,24,0.00,,CLR,0.00,VWS V14.01,2013-11-14 16:07:00,
2013-11-14 10:13:00,38.1,4.5,29.79,SSW,204,8.7,10.5,24,0.00,,CLR,0.00,VWS V14.01,2013-11-14 16:13:00,
2013-11-14 10:18:00,38.5,4.8,29.79,SSW,196,8.1,8.1,24,0.00,,CLR,0.00,VWS V14.01,2013-11-14 16:18:00,
2013-11-14 10:23:00,38.8,5.2,29.79,SW,223,8.7,12.3,24,0.00,,CLR,0.00,VWS V14.01,2013-11-14 16:23:00,
2013-11-14 10:28:00,39.2,4.5,29.79,SSW,197,12.3,12.3,23,0.00,,CLR,0.00,VWS V14.01,2013-11-14 16:28:00,
2013-11-14 10:33:00,39.4,4.7,29.79,SW,225,8.1,8.7,23,0.00,,CLR,0.00,VWS V14.01,2013-11-14 16:33:00,
2013-11-14 10:39:00,39.9,5.1,29.79,WSW,239,6.3,10.5,23,0.00,,CLR,0.00,VWS V14.01,2013-11-14 16:39:00,
2013-11-14 10:44:00,40.3,5.4,29.79,SW,226,10.1,10.5,23,0.00,,CLR,0.00,VWS V14.01,2013-11-14 16:44:00,
2013-11-14 10:49:00,40.5,5.6,29.79,WSW,240,7.2,9.6,23,0.00,,CLR,0.00,VWS V14.01,2013-11-14 16:49:00,
2013-11-14 10:55:00,40.5,5.6,29.79,SW,234,10.5,10.5,23,0.00,,CLR,0.00,VWS V14.01,2013-11-14 16:55:00,
2013-11-14 11:00:00,40.5,5.6,29.79,SSW,208,11.0,11.0,23,0.00,,CLR,0.00,VWS V14.01,2013-11-14 17:00:00,
2013-11-14 11:05:00,40.5,5.6,29.79,SW,223,15.4,15.4,23,0.00,,CLR,0.00,VWS V14.01,2013-11-14 17:05:00,
2013-11-14 11:11:00,40.8,5.9,29.79,SSW,202,8.3,11.0,23,0.00,,CLR,0.00,VWS V14.01,2013-11-14 17:11:00,
2013-11-14 11:16:00,41.0,6.1,29.79,SW,236,6.7,8.1,23,0.00,,CLR,0.00,VWS V14.01,2013-11-14 17:16:00,
2013-11-14 11:21:00,41.2,6.2,29.79,SW,222,8.1,12.8,23,0.00,,CLR,0.00,VWS V14.01,2013-11-14 17:21:00,
2013-11-14 11:26:00,41.5,6.5,29.79,SSW,211,10.5,11.4,23,0.00,,CLR,0.00,VWS V14.01,2013-11-14 17:26:00,
2013-11-14 11:31:00,41.7,6.7,29.79,WSW,248,10.1,12.8,23,0.00,,CLR,0.00,VWS V14.01,2013-11-14 17:31:00,
2013-11-14 11:36:00,42.1,7.0,29.76,SW,231,11.0,15.0,23,0.00,,CLR,0.00,VWS V14.01,2013-11-14 17:36:00,
2013-11-14 11:41:00,42.4,7.3,29.76,West,260,11.0,15.0,23,0.00,,CLR,0.00,VWS V14.01,2013-11-14 17:41:00,
2013-11-14 11:46:00,42.6,7.4,29.76,WSW,251,13.2,13.2,23,0.00,,CLR,0.00,VWS V14.01,2013-11-14 17:46:00,
2013-11-14 11:52:00,43.2,7.9,29.76,SW,217,8.1,11.0,23,0.00,,CLR,0.00,VWS V14.01,2013-11-14 17:52:00,
2013-11-14 11:57:00,43.3,8.0,29.76,WSW,243,6.3,11.0,23,0.00,,CLR,0.00,VWS V14.01,2013-11-14 17:57:00,
2013-11-14 12:02:00,43.5,8.2,29.76,South,177,4.0,9.6,23,0.00,,CLR,0.00,VWS V14.01,2013-11-14 18:02:00,
2013-11-14 12:07:00,43.7,8.3,29.76,SSW,196,5.8,8.3,23,0.00,,CLR,0.00,VWS V14.01,2013-11-14 18:07:00,
2013-11-14 12:13:00,43.7,8.3,29.76,SW,218,8.3,12.3,23,0.00,,CLR,0.00,VWS V14.01,2013-11-14 18:13:00,
2013-11-14 12:18:00,43.9,8.5,29.76,SW,232,5.8,11.9,23,0.00,,CLR,0.00,VWS V14.01,2013-11-14 18:18:00,
2013-11-14 12:24:00,44.1,8.6,29.76,SW,217,10.1,12.3,23,0.00,,CLR,0.00,VWS V14.01,2013-11-14 18:24:00,
2013-11-14 12:30:00,44.1,8.6,29.76,SW,222,10.5,11.9,23,0.00,,CLR,0.00,VWS V14.01,2013-11-14 18:30:00,
2013-11-14 12:35:00,44.2,8.8,29.73,SW,236,8.1,8.3,23,0.00,,CLR,0.00,VWS V14.01,2013-11-14 18:35:00,
2013-11-14 12:40:00,44.6,8.1,29.73,SW,214,7.6,8.7,22,0.00,,CLR,0.00,VWS V14.01,2013-11-14 18:40:00,
2013-11-14 12:45:00,44.8,8.3,29.73,SW,224,8.7,8.7,22,0.00,,CLR,0.00,VWS V14.01,2013-11-14 18:45:00,
2013-11-14 12:50:00,45.1,8.6,29.73,SW,222,7.6,17.0,22,0.00,,CLR,0.00,VWS V14.01,2013-11-14 18:50:00,
2013-11-14 12:56:00,45.3,8.7,29.73,South,188,5.8,12.8,22,0.00,,CLR,0.00,VWS V14.01,2013-11-14 18:56:00,
2013-11-14 13:01:00,45.3,8.7,29.73,WSW,249,8.7,13.2,22,0.00,,CLR,0.00,VWS V14.01,2013-11-14 19:01:00,
2013-11-14 13:06:00,45.9,9.2,29.73,WSW,246,10.1,13.6,22,0.00,,CLR,0.00,VWS V14.01,2013-11-14 19:06:00,
2013-11-14 13:11:00,45.9,9.2,29.73,SW,233,8.3,10.1,22,0.00,,CLR,0.00,VWS V14.01,2013-11-14 19:11:00,
2013-11-14 13:16:00,45.7,9.0,29.73,SW,214,9.6,11.0,22,0.00,,CLR,0.00,VWS V14.01,2013-11-14 19:16:00,
2013-11-14 13:21:00,45.5,8.9,29.73,SW,222,10.1,13.2,22,0.00,,CLR,0.00,VWS V14.01,2013-11-14 19:21:00,
2013-11-14 13:27:00,45.9,9.2,29.73,SW,224,8.3,12.8,22,0.00,,CLR,0.00,VWS V14.01,2013-11-14 19:27:00,
2013-11-14 13:32:00,45.9,9.2,29.73,SW,230,8.3,10.1,22,0.00,,CLR,0.00,VWS V14.01,2013-11-14 19:32:00,
2013-11-14 13:37:00,46.2,9.5,29.73,SW,227,8.3,12.8,22,0.00,,CLR,0.00,VWS V14.01,2013-11-14 19:37:00,
2013-11-14 13:43:00,46.4,9.6,29.73,WSW,245,6.3,8.1,22,0.00,,CLR,0.00,VWS V14.01,2013-11-14 19:43:00,
2013-11-14 13:48:00,46.6,9.8,29.73,SSW,210,11.0,12.8,22,0.00,,CLR,0.00,VWS V14.01,2013-11-14 19:48:00,
2013-11-14 13:53:00,46.4,9.6,29.73,SW,234,6.7,9.6,22,0.00,,CLR,0.00,VWS V14.01,2013-11-14 19:53:00,
2013-11-14 13:58:00,46.8,9.9,29.73,SW,229,11.4,11.4,22,0.00,,CLR,0.00,VWS V14.01,2013-11-14 19:58:00,
2013-11-14 14:03:00,46.8,9.9,29.73,SSW,212,8.3,10.5,22,0.00,,CLR,0.00,VWS V14.01,2013-11-14 20:03:00,
2013-11-14 14:09:00,46.8,9.9,29.73,SSW,210,5.8,8.7,22,0.00,,CLR,0.00,VWS V14.01,2013-11-14 20:09:00,
2013-11-14 14:15:00,46.4,9.6,29.73,SSW,208,6.3,10.1,22,0.00,,CLR,0.00,VWS V14.01,2013-11-14 20:15:00,
2013-11-14 14:20:00,46.0,9.3,29.73,SW,233,3.6,9.6,22,0.00,,CLR,0.00,VWS V14.01,2013-11-14 20:20:00,
2013-11-14 14:26:00,46.0,9.3,29.73,SSW,208,11.4,11.4,22,0.00,,CLR,0.00,VWS V14.01,2013-11-14 20:26:00,
2013-11-14 14:31:00,46.0,9.3,29.73,SW,225,6.7,7.6,22,0.00,,CLR,0.00,VWS V14.01,2013-11-14 20:31:00,
2013-11-14 14:37:00,45.9,9.2,29.73,SW,231,10.5,15.0,22,0.00,,CLR,0.00,VWS V14.01,2013-11-14 20:37:00,
2013-11-14 14:42:00,45.7,9.0,29.73,South,191,4.0,10.5,22,0.00,,CLR,0.00,VWS V14.01,2013-11-14 20:42:00,
2013-11-14 14:48:00,45.7,9.0,29.73,SW,236,7.6,7.6,22,0.00,,CLR,0.00,VWS V14.01,2013-11-14 20:48:00,
2013-11-14 14:54:00,45.5,8.9,29.73,WSW,250,11.0,11.0,22,0.00,,CLR,0.00,VWS V14.01,2013-11-14 20:54:00,
2013-11-14 14:59:00,45.5,8.9,29.73,WSW,240,5.4,11.0,22,0.00,,CLR,0.00,VWS V14.01,2013-11-14 20:59:00,
2013-11-14 15:05:00,45.3,8.7,29.76,SSW,203,8.3,8.3,22,0.00,,CLR,0.00,VWS V14.01,2013-11-14 21:05:00,
2013-11-14 15:10:00,45.3,8.7,29.76,SW,220,9.2,9.2,22,0.00,,CLR,0.00,VWS V14.01,2013-11-14 21:10:00,
2013-11-14 15:15:00,45.1,8.6,29.76,SSW,205,7.6,7.6,22,0.00,,CLR,0.00,VWS V14.01,2013-11-14 21:15:00,
2013-11-14 15:20:00,45.1,8.6,29.76,SSW,209,8.1,8.1,22,0.00,,CLR,0.00,VWS V14.01,2013-11-14 21:20:00,
2013-11-14 15:26:00,45.0,8.4,29.76,SSW,205,5.4,10.1,22,0.00,,CLR,0.00,VWS V14.01,2013-11-14 21:26:00,
2013-11-14 15:31:00,44.8,8.3,29.76,SW,220,12.3,12.3,22,0.00,,CLR,0.00,VWS V14.01,2013-11-14 21:31:00,
2013-11-14 15:37:00,44.6,8.1,29.76,SSW,205,5.4,8.1,22,0.00,,CLR,0.00,VWS V14.01,2013-11-14 21:37:00,
2013-11-14 15:42:00,44.4,8.9,29.76,South,178,5.8,10.1,23,0.00,,CLR,0.00,VWS V14.01,2013-11-14 21:42:00,
2013-11-14 15:47:00,44.2,8.8,29.76,SW,234,5.4,6.3,23,0.00,,CLR,0.00,VWS V14.01,2013-11-14 21:47:00,
2013-11-14 15:52:00,44.1,8.6,29.76,SSW,205,6.7,8.3,23,0.00,,CLR,0.00,VWS V14.01,2013-11-14 21:52:00,
2013-11-14 15:57:00,43.9,8.5,29.76,SW,227,8.7,8.7,23,0.00,,CLR,0.00,VWS V14.01,2013-11-14 21:57:00,
2013-11-14 16:03:00,43.5,8.2,29.76,SW,226,8.7,8.7,23,0.00,,CLR,0.00,VWS V14.01,2013-11-14 22:03:00,
2013-11-14 16:08:00,43.3,8.0,29.76,SW,220,4.0,8.1,23,0.00,,CLR,0.00,VWS V14.01,2013-11-14 22:08:00,
2013-11-14 16:13:00,43.0,7.7,29.76,SSW,209,3.6,4.9,23,0.00,,CLR,0.00,VWS V14.01,2013-11-14 22:13:00,
2013-11-14 16:18:00,42.8,7.6,29.76,SW,220,3.1,4.0,23,0.00,,CLR,0.00,VWS V14.01,2013-11-14 22:18:00,
2013-11-14 16:23:00,42.4,7.3,29.76,SW,222,2.7,4.0,23,0.00,,CLR,0.00,VWS V14.01,2013-11-14 22:23:00,
2013-11-14 16:29:00,42.1,7.0,29.76,SSW,210,5.4,5.4,23,0.00,,CLR,0.00,VWS V14.01,2013-11-14 22:29:00,
2013-11-14 16:34:00,41.5,6.5,29.76,SSW,203,2.7,4.0,23,0.00,,CLR,0.00,VWS V14.01,2013-11-14 22:34:00,
2013-11-14 16:39:00,41.2,6.2,29.76,South,186,3.1,4.0,23,0.00,,CLR,0.00,VWS V14.01,2013-11-14 22:39:00,
2013-11-14 16:44:00,40.6,8.4,29.76,SSW,207,3.1,5.8,26,0.00,,CLR,0.00,VWS V14.01,2013-11-14 22:44:00,
2013-11-14 16:50:00,40.3,8.1,29.76,SSW,200,5.4,5.4,26,0.00,,CLR,0.00,VWS V14.01,2013-11-14 22:50:00,
2013-11-14 16:55:00,40.1,8.0,29.76,SSW,200,0.0,3.6,26,0.00,,CLR,0.00,VWS V14.01,2013-11-14 22:55:00,
2013-11-14 17:00:00,39.7,7.7,29.76,SSW,212,2.2,3.6,26,0.00,,CLR,0.00,VWS V14.01,2013-11-14 23:00:00,
2013-11-14 17:06:00,39.6,7.5,29.76,SSW,197,2.7,4.0,26,0.00,,CLR,0.00,VWS V14.01,2013-11-14 23:06:00,
2013-11-14 17:11:00,39.4,7.4,29.76,SSW,199,0.0,0.0,26,0.00,,CLR,0.00,VWS V14.01,2013-11-14 23:11:00,
2013-11-14 17:17:00,39.4,9.0,29.76,SSW,195,3.1,4.0,28,0.00,,CLR,0.00,VWS V14.01,2013-11-14 23:17:00,
2013-11-14 17:22:00,39.4,9.0,29.76,South,178,2.7,4.9,28,0.00,,CLR,0.00,VWS V14.01,2013-11-14 23:22:00,
2013-11-14 17:28:00,39.2,8.9,29.76,South,188,4.0,5.8,28,0.00,,CLR,0.00,VWS V14.01,2013-11-14 23:28:00,
2013-11-14 17:33:00,39.2,8.9,29.76,South,183,3.1,5.4,28,0.00,,CLR,0.00,VWS V14.01,2013-11-14 23:33:00,
2013-11-14 17:39:00,39.4,9.0,29.76,South,190,3.6,7.6,28,0.00,,CLR,0.00,VWS V14.01,2013-11-14 23:39:00,
2013-11-14 17:45:00,39.7,9.3,29.76,SW,218,3.6,5.4,28,0.00,,CLR,0.00,VWS V14.01,2013-11-14 23:45:00,
2013-11-14 17:50:00,39.7,9.3,29.76,South,176,3.6,4.5,28,0.00,,CLR,0.00,VWS V14.01,2013-11-14 23:50:00,
2013-11-14 17:56:00,39.7,9.3,29.76,SSW,201,3.1,6.3,28,0.00,,CLR,0.00,VWS V14.01,2013-11-14 23:56:00,
2013-11-14 18:01:00,39.6,9.2,29.76,SSW,194,4.9,4.9,28,0.00,,CLR,0.00,VWS V14.01,2013-11-15 00:01:00,
2013-11-14 18:07:00,39.4,9.0,29.76,SSW,198,4.0,4.9,28,0.00,,CLR,0.00,VWS V14.01,2013-11-15 00:07:00,
2013-11-14 18:13:00,39.4,9.0,29.76,SSW,202,4.9,4.9,28,0.00,,CLR,0.00,VWS V14.01,2013-11-15 00:13:00,
2013-11-14 18:18:00,39.2,8.9,29.76,SSW,200,2.7,4.0,28,0.00,,CLR,0.00,VWS V14.01,2013-11-15 00:18:00,
2013-11-14 18:24:00,38.8,9.3,29.76,SSW,206,3.6,3.6,29,0.00,,CLR,0.00,VWS V14.01,2013-11-15 00:24:00,
2013-11-14 18:29:00,38.7,9.2,29.76,SSW,195,2.7,3.6,29,0.00,,CLR,0.00,VWS V14.01,2013-11-15 00:29:00,
2013-11-14 18:35:00,38.3,8.8,29.76,SSW,198,4.0,4.0,29,0.00,,CLR,0.00,VWS V14.01,2013-11-15 00:35:00,
2013-11-14 18:40:00,38.3,8.8,29.76,South,179,5.4,6.7,29,0.00,,CLR,0.00,VWS V14.01,2013-11-15 00:40:00,
2013-11-14 18:45:00,38.5,9.0,29.76,SSW,199,5.4,6.3,29,0.00,,CLR,0.00,VWS V14.01,2013-11-15 00:45:00,
2013-11-14 18:50:00,38.8,9.3,29.76,SW,222,3.1,4.9,29,0.00,,CLR,0.00,VWS V14.01,2013-11-15 00:50:00,
2013-11-14 18:56:00,39.0,9.5,29.76,South,189,4.9,5.8,29,0.00,,CLR,0.00,VWS V14.01,2013-11-15 00:56:00,
2013-11-14 19:01:00,39.0,9.5,29.76,SSW,194,3.1,6.3,29,0.00,,BKN100,0.00,VWS V14.01,2013-11-15 01:01:00,
2013-11-14 19:07:00,39.0,9.5,29.76,South,184,4.0,6.3,29,0.00,,BKN100,0.00,VWS V14.01,2013-11-15 01:07:00,
2013-11-14 19:13:00,39.0,9.5,29.76,SSW,192,3.6,4.9,29,0.00,,BKN100,0.00,VWS V14.01,2013-11-15 01:13:00,
2013-11-14 19:19:00,39.0,9.5,29.76,SSW,198,4.9,5.4,29,0.00,,BKN100,0.00,VWS V14.01,2013-11-15 01:19:00,
2013-11-14 19:24:00,39.0,9.5,29.76,South,185,3.1,5.4,29,0.00,,BKN100,0.00,VWS V14.01,2013-11-15 01:24:00,
2013-11-14 19:30:00,39.0,9.5,29.76,SSW,204,6.3,6.3,29,0.00,,BKN100,0.00,VWS V14.01,2013-11-15 01:30:00,
2013-11-14 19:35:00,39.2,9.6,29.76,SSW,205,3.1,4.9,29,0.00,,BKN100,0.00,VWS V14.01,2013-11-15 01:35:00,
2013-11-14 19:40:00,39.2,9.6,29.76,SSW,211,5.8,5.8,29,0.00,,BKN100,0.00,VWS V14.01,2013-11-15 01:40:00,
2013-11-14 19:45:00,39.2,9.6,29.76,SW,232,3.1,5.8,29,0.00,,BKN100,0.00,VWS V14.01,2013-11-15 01:45:00,
2013-11-14 19:50:00,39.2,9.6,29.76,SSW,198,4.9,4.9,29,0.00,,BKN100,0.00,VWS V14.01,2013-11-15 01:50:00,
2013-11-14 19:56:00,39.0,10.2,29.76,South,184,3.6,3.6,30,0.00,,BKN100,0.00,VWS V14.01,2013-11-15 01:56:00,
2013-11-14 20:01:00,38.8,10.1,29.76,South,187,2.7,5.4,30,0.00,,BKN120,0.00,VWS V14.01,2013-11-15 02:01:00,
2013-11-14 20:06:00,38.7,10.6,29.76,SSW,209,2.7,3.1,31,0.00,,BKN120,0.00,VWS V14.01,2013-11-15 02:06:00,
2013-11-14 20:11:00,38.5,10.5,29.76,SSW,200,4.0,4.0,31,0.00,,BKN120,0.00,VWS V14.01,2013-11-15 02:11:00,
2013-11-14 20:17:00,38.3,11.0,29.76,SSW,201,2.7,4.0,32,0.00,,BKN120,0.00,VWS V14.01,2013-11-15 02:17:00,
2013-11-14 20:23:00,38.1,11.6,29.76,SSW,204,3.1,4.0,33,0.00,,BKN120,0.00,VWS V14.01,2013-11-15 02:23:00,
2013-11-14 20:28:00,37.9,12.7,29.76,SSW,208,4.0,5.4,35,0.00,,BKN120,0.00,VWS V14.01,2013-11-15 02:28:00,
2013-11-14 20:33:00,37.9,12.7,29.76,South,183,4.0,4.0,35,0.00,,BKN120,0.00,VWS V14.01,2013-11-15 02:33:00,
2013-11-14 20:38:00,37.9,12.7,29.76,SSW,202,4.0,4.0,35,0.00,,BKN120,0.00,VWS V14.01,2013-11-15 02:38:00,
2013-11-14 20:44:00,37.9,13.4,29.76,South,176,5.8,5.8,36,0.00,,BKN120,0.00,VWS V14.01,2013-11-15 02:44:00,
2013-11-14 20:50:00,37.9,13.4,29.76,South,190,5.4,5.4,36,0.00,,BKN120,0.00,VWS V14.01,2013-11-15 02:50:00,
2013-11-14 20:55:00,38.1,12.9,29.76,South,187,4.9,4.9,35,0.00,,BKN120,0.00,VWS V14.01,2013-11-15 02:55:00,
2013-11-14 21:00:00,38.1,12.9,29.76,SSW,200,3.6,4.0,35,0.00,,BKN120,0.00,VWS V14.01,2013-11-15 03:00:00,
2013-11-14 21:05:00,37.9,13.4,29.76,South,190,3.1,4.9,36,0.00,,OVC110,0.00,VWS V14.01,2013-11-15 03:05:00,
2013-11-14 21:11:00,37.9,13.4,29.76,SSW,212,5.8,5.8,36,0.00,,OVC110,0.00,VWS V14.01,2013-11-15 03:11:00,
2013-11-14 21:16:00,37.9,13.4,29.76,South,191,3.1,4.0,36,0.00,,OVC110,0.00,VWS V14.01,2013-11-15 03:16:00,
2013-11-14 21:21:00,37.9,12.7,29.76,South,191,3.1,4.0,35,0.00,,OVC110,0.00,VWS V14.01,2013-11-15 03:21:00,
2013-11-14 21:26:00,37.9,12.7,29.76,SSW,204,2.7,3.6,35,0.00,,OVC110,0.00,VWS V14.01,2013-11-15 03:26:00,
2013-11-14 21:32:00,37.9,13.4,29.76,South,185,4.0,4.9,36,0.00,,OVC110,0.00,VWS V14.01,2013-11-15 03:32:00,
2013-11-14 21:37:00,37.9,13.4,29.76,SSW,212,3.6,3.6,36,0.00,,OVC110,0.00,VWS V14.01,2013-11-15 03:37:00,
2013-11-14 21:42:00,37.9,13.4,29.76,SW,219,0.0,5.4,36,0.00,,OVC110,0.00,VWS V14.01,2013-11-15 03:42:00,
2013-11-14 21:47:00,37.8,13.2,29.76,SSW,198,2.7,3.1,36,0.00,,OVC110,0.00,VWS V14.01,2013-11-15 03:47:00,
2013-11-14 21:52:00,37.8,13.2,29.76,SSW,197,3.6,4.9,36,0.00,,OVC110,0.00,VWS V14.01,2013-11-15 03:52:00,
2013-11-14 21:58:00,37.9,13.4,29.76,South,191,3.1,3.1,36,0.00,,OVC110,0.00,VWS V14.01,2013-11-15 03:58:00,
2013-11-14 22:04:00,37.8,13.2,29.76,SW,216,3.1,4.0,36,0.00,,-RA,0.00,VWS V14.01,2013-11-15 04:04:00,
2013-11-14 22:09:00,37.8,13.8,29.76,South,186,2.7,3.6,37,0.00,,-RA,0.00,VWS V14.01,2013-11-15 04:09:00,
2013-11-14 22:14:00,37.8,13.8,29.76,SSW,195,3.6,3.6,37,0.00,,-RA,0.00,VWS V14.01,2013-11-15 04:14:00,
2013-11-14 22:20:00,37.8,13.8,29.76,SSW,200,4.0,4.0,37,0.00,,-RA,0.00,VWS V14.01,2013-11-15 04:20:00,
2013-11-14 22:25:00,37.6,13.7,29.76,SSW,210,2.7,3.6,37,0.00,,-RA,0.00,VWS V14.01,2013-11-15 04:25:00,
2013-11-14 22:30:00,37.6,13.7,29.76,SSW,206,3.1,4.0,37,0.00,,-RA,0.00,VWS V14.01,2013-11-15 04:30:00,
2013-11-14 22:35:00,37.6,13.7,29.76,SSW,198,3.1,4.0,37,0.00,,-RA,0.00,VWS V14.01,2013-11-15 04:35:00,
2013-11-14 22:40:00,37.4,13.5,29.76,South,170,2.7,3.6,37,0.00,,-RA,0.00,VWS V14.01,2013-11-15 04:40:00,
2013-11-14 22:45:00,37.2,13.4,29.76,SSW,192,2.7,3.6,37,0.00,,-RA,0.00,VWS V14.01,2013-11-15 04:45:00,
2013-11-14 22:50:00,37.0,13.2,29.76,SSW,197,0.0,0.0,37,0.00,,-RA,0.00,VWS V14.01,2013-11-15 04:50:00,
2013-11-14 22:56:00,36.9,13.0,29.76,SSW,202,3.1,4.0,37,0.00,,-RA,0.00,VWS V14.01,2013-11-15 04:56:00,
2013-11-14 23:01:00,36.7,13.5,29.76,SSW,193,3.1,3.6,38,0.00,,OVC070,0.00,VWS V14.01,2013-11-15 05:01:00,
2013-11-14 23:03:00,36.7,13.5,29.76,South,180,3.6,3.6,38,0.00,,OVC070,0.00,VWS V14.01,2013-11-15 05:03:00,
2013-11-14 23:04:00,36.7,13.5,29.76,SSW,192,2.2,3.6,38,0.00,,OVC070,0.00,VWS V14.01,2013-11-15 05:04:00,
2013-11-14 23:06:00,36.5,13.3,29.76,South,176,2.7,3.6,38,0.00,,OVC070,0.00,VWS V14.01,2013-11-15 05:06:00,
2013-11-14 23:07:00,36.5,13.3,29.76,South,182,3.1,3.1,38,0.00,,OVC070,0.00,VWS V14.01,2013-11-15 05:07:00,
2013-11-14 23:13:00,36.5,13.9,29.76,SSW,199,2.2,3.1,39,0.00,,OVC070,0.00,VWS V14.01,2013-11-15 05:13:00,
2013-11-14 23:17:00,36.3,13.8,29.76,SSW,199,0.0,0.0,39,0.00,,OVC070,0.00,VWS V14.01,2013-11-15 05:17:00,
2013-11-14 23:22:00,36.3,13.8,29.76,South,181,0.0,0.0,39,0.00,,OVC070,0.00,VWS V14.01,2013-11-15 05:22:00,
2013-11-14 23:27:00,36.3,13.8,29.76,SSE,149,2.7,4.0,39,0.00,,OVC070,0.00,VWS V14.01,2013-11-15 05:27:00,
2013-11-14 23:32:00,36.3,14.3,29.76,South,179,2.7,3.1,40,0.00,,OVC070,0.00,VWS V14.01,2013-11-15 05:32:00,
2013-11-14 23:38:00,36.5,14.5,29.76,SW,235,2.2,4.9,40,0.00,,OVC070,0.00,VWS V14.01,2013-11-15 05:38:00,
2013-11-14 23:43:00,36.5,14.5,29.76,SSW,194,2.7,3.1,40,0.00,,OVC070,0.00,VWS V14.01,2013-11-15 05:43:00,
2013-11-14 23:48:00,36.7,14.6,29.76,South,191,3.1,3.6,40,0.00,,OVC070,0.00,VWS V14.01,2013-11-15 05:48:00,
2013-11-14 23:54:00,36.7,14.6,29.76,SSW,192,2.7,3.6,40,0.00,,OVC070,0.00,VWS V14.01,2013-11-15 05:54:00,
2013-11-14 23:59:00,36.7,14.6,29.76,SW,214,2.7,2.7,40,0.00,,OVC070,0.00,VWS V14.01,2013-11-15 05:59:00,